全球卫星定位系统 GPS 72星 (NAVSTAR 72 (USA 258))

导读

NAVSTAR 72(USA 258)是美国于2014年10月29日发射的GPS导航卫星,隶属于美国全球定位系统(GPS)。作为GPS组网卫星之一,它运行在中地球轨道,为全球绝大多数地区提供精准的定位、测速与授时服务,支持民用与军用导航需求,巩固了GPS星座的服务能力,保障全球用户随时随地获取稳定可靠的空间位置信息,是美国维持全球导航优势的重要空间节点。

Basic Information
目录编号:
40294
目录名称:
NAVSTAR 72 (USA 258)
国际标识:
2014-068A
轨道中心:
EARTH
卫星名称:
GPS 72星
卫星全名:
全球卫星定位系统 GPS 72星 (NAVSTAR 72 (USA 258))
卫星状态:
在轨 (已飞行4256 天)
发射日期:
2014-10-29 UTC
国别 :
美国 (US)
星等 :
--
Orbit Information
数据来源 国际轨道数据 AOE轨道数据
星历时间 2026-06-23T05:44:44+0800
1天前
查看轨道信息
2026-06-19T12:00:00+0800
5天前
查看轨道信息
半长轴 26559.201km 26559.439km
偏心率 0.0067175 0.006717
轨道倾角 56.992° 56.989°
近地点辐角 70.830° 70.416°
升交点赤经 30.734° 30.879°
平近点角 289.945° 110.161°
近地点 20002.652km 20002.902km
远地点 20359.476km 20359.702km
周期 717.930分钟 717.940分钟
每日圈数 2.005766 2.005739
Detailed Information
平衡模式:
三轴稳定
覆盖范围:
全球
运营商:
美国太空军
运营商所在国:
美国
制造商(研发单位):
波音公司
制造商所在国:
美国
使用方式:
暂无
工作目标:
提供军用及民用全球定位与导航服务。
预期寿命:
12年
Satellite Introduction
全球定位系统(英语:Global Positioning System,通常简称GPS),又称全球卫星定位系统,是美国国防部研制,美国太空军运营与维护的中地球轨道卫星导航系统。它可以为地球表面约98%的地区提供准确的定位、测速和高精度的标准时间。全球定位系统可满足位于全球地面任何一处或近地空间的军事用户连续且精确地确定三维位置、三维运动和时间的需求。该系统包括太空中的31颗GPS人造卫星.该卫星仍在工作。
2D Orbit Map
3D Orbit Map
Orbit Altitude Analysis Chart
Orbit Inclination Analysis Chart
Orbit Comprehensive Analysis Chart
View Comprehensive Chart